Regional Weather Roundup
Issued by NWS Upton, NY

Current Version | Previous Version | Graphics & Text | Print | Product List | Glossary Off
Versions: 1 2 3 4 5 6 7 8 9 10 11 12 13 14 15 16 17 18 19 20 21 22 23 24 25 26 27 28 29 30 31 32 33 34 35 36 37 38 39 40 41 42 43 44 45 46 47 48 49 50

000
ASUS41 KOKX 230005
RWROKX

REGIONAL WEATHER ROUNDUP
NATIONAL WEATHER SERVICE NEW YORK NY
700 PM EST SAT NOV 22 2014

NOTE: "FAIR" INDICATES FEW OR NO CLOUDS BELOW 12,000 FEET WITH NO
SIGNIFICANT WEATHER AND/OR OBSTRUCTIONS TO VISIBILITY.

NYZ071-072-176-178-NJZ106-104-230100-
NEW YORK CITY METRO AREA


CITY           SKY/WX    TMP DP  RH WIND       PRES   REMARKS
CENTRAL PARK   MOCLDY    43  17  35 SW7       30.25F
LAGUARDIA APRT CLOUDY    43  18  36 SW12G21   30.23F
KENNEDY INTL   MOCLDY    44  20  38 SW18      30.27F
NEWARK/LIBERTY MOCLDY    43  19  38 SW12      30.25F
BRNX BOT. GARD   N/A    N/A N/A N/A S8        30.24F
TETERBORO      MOCLDY    43  18  36 SW14      30.23F
$$

NYZ177-179-078>081-230100-
LONG ISLAND NEW YORK

CITY           SKY/WX    TMP DP  RH WIND       PRES   REMARKS
FARMINGDALE    MOCLDY    44  20  38 SW12G21   30.25F
ISLIP          MOCLDY    43  22  43 SW14G25   30.23F
SHIRLEY        CLOUDY    44  25  47 SW10G21   30.25F
WESTHAMPTON    CLOUDY    45  27  49 SW17G24   30.24F
MONTAUK POINT    N/A     46  32  58 SW14G25   30.22F
$$

NYZ052-065-067-230100-
HUDSON VALLEY

CITY           SKY/WX    TMP DP  RH WIND       PRES   REMARKS
WHITE PLAINS   CLOUDY    41  17  38 VRB5      30.22S
NEWBURGH       CLOUDY    41  16  36 SW12      30.20S
MONTGOMERY     CLOUDY    41  14  33 SW12      30.18F
POUGHKEEPSIE   CLOUDY    43  14  31 SW7       30.19F
ALBANY         CLOUDY    39  14  36 S10G21    30.09F WCI  32
$$

NJZ001-105-106-008-010-013-015-019>022-104-230100-
NEW JERSEY

CITY           SKY/WX    TMP DP  RH WIND       PRES   REMARKS
NEWARK/LIBERTY MOCLDY    43  19  38 SW12      30.25F
TETERBORO      MOCLDY    43  18  36 SW14      30.23F
CALDWELL       MOCLDY    41  17  38 W6        30.24F
MORRISTOWN     MOCLDY    41  18  38 MISG      30.24F
SOMERVILLE     CLOUDY    42  18  37 VRB5      30.25S
SUSSEX         CLOUDY    40  16  37 SW9       30.20R WCI  34
ANDOVER          N/A     39  17  41 SW13G18   30.21F WCI  31
TRENTON        CLOUDY    42  17  36 SW9       30.27F
MILLVILLE      CLOUDY    42  24  49 VRB5      30.32F
ATLANTIC CITY  CLOUDY    42  22  44 SW10      30.31F
WRIGHTSTOWN    CLOUDY    41  22  47 SW7       30.26F
TOMS RIVER     CLOUDY    39  23  52 SW3       30.29F
BELMAR         CLOUDY    43  19  39 SW12      30.27S
$$

PAZ047>061-062-071-230100-
EASTERN PENNSYLVANIA

CITY           SKY/WX    TMP DP  RH WIND       PRES   REMARKS
PHILADELPHIA   CLOUDY    44  21  40 SW12      30.31S
ALLENTOWN      CLOUDY    41  17  38 SW10      30.25F
SCRANTON       CLOUDY    38  16  40 SW8       30.18F WCI  32
$$

CTZ002-004>006-009-010-012-RIZ004-006-007-MAZ004-011-015-230100-
SOUTHERN NEW ENGLAND
 IN CT

CITY           SKY/WX    TMP DP  RH WIND       PRES   REMARKS
BRADLEY INTL   MOCLDY    42  12  29 S9G20     30.14F
HARTFORD       CLOUDY    41  18  39 S10       30.18F
DANBURY        CLOUDY    40  15  36 SW9       30.22R WCI  34
WTRBRY/OXFORD  CLOUDY    37  16  41 SW7       30.20S WCI  32
BRIDGEPORT     CLOUDY    44  24  45 SW16G25   30.23S
MERIDEN        CLOUDY    42  18  37 SW7G18    30.20S
NEW HAVEN      CLOUDY    47  24  40 SW13G23   30.22F
CHESTER        CLOUDY    41  23  48 SW10G21   30.19S
GROTON         CLOUDY    44  30  57 SW21G28   30.20F
WILLIMANTIC    CLOUDY    41  19  41 SW9       30.18S

 IN RI

CITY           SKY/WX    TMP DP  RH WIND       PRES   REMARKS
PROVIDENCE     MOCLDY    40  25  55 SW13      30.17F WCI  32
BLOCK ISLAND   CLOUDY    46  32  57 SW30G36   30.19F
WESTERLY       CLOUDY    44  29  55 SW17G25   30.21F

 IN MA

CITY           SKY/WX    TMP DP  RH WIND       PRES   REMARKS
BOSTON         CLOUDY    40  16  37 SW21      30.11F WCI  30
WORCESTER      PTCLDY    35  10  35 SW22G29   30.07S WCI  23
WESTFIELD      MOCLDY    39  11  31 S13       30.11F WCI  31
PROVINCETOWN   CLOUDY    43  27  52 SW28G38   30.12F
NANTUCKET      MOCLDY    48  37  65 SW32G39   30.20F
$$

ANZ330-335-338-340-345-350-353-355-230100-
COASTAL MARINE OBSERVATIONS


STATION/POSITION TIME  SKY/WX   TEMP    WIND        PRES    VSBY  WAVE
                                AIR SEA DIR/SP/G                  HT/PER
                 (UTC)          (F)     (DEG/KT/KT) (MB)    (MI)  (FT/S)
NY HARB ENTRANCE 0000            46 56  240/ 21/ 27 1024.5          5/ 6
4S FIRE IS       0000               52                N/A           6/ 6
20S FIRE ISLAND  0000            47 54  240/ 23/ 27 1024.4          6/ 6
23SW MTP         0000                                 N/A          10/ 7
HUDSON CANYON    0000            50 58  230/ 25/ 29 1025.1          7/ 6
EXECUTION ROCKS  0000            44 47  230/ 19/ 25   N/A
WESTERN LI SOUND 2300            45     220/ 17/ 23   N/A           2/ 3
CENTRAL LI SOUND 2300            45 50  230/ 19/ 23   N/A           3/ 5
EASTERN LI SOUND 2300            45 52  230/ 19/ 25   N/A
ROBBINS REEF     0000            43     230/ 12/ 15 1023.3
$$


>>>>>>>>>>>>>>>>>>>>>>>>>>>> KEY <<<<<<<<<<<<<<<<<<<<<<<<<<<
>                                                          <
>     SKY/WX - SKY CONDITION/PRESENT WEATHER               <
>     TMP    - TEMPERATURE IN FAHRENHEIT                   <
>     DP     - DEWPOINT IN FAHRENHEIT                      <
>     RH     - RELATIVE HUMIDITY IN PERCENT                <
>     WIND   - DIRECTION AND SPEED IN MPH                  <
>     PRES   - MEAN SEA LEVEL PRESSURE IN INCHES OF HG     <
>     WCI    - WIND CHILL INDEX                            <
>     VSB    - VISIBILITY IN MILES                         <
>     HX     - HEAT INDEX                                  <
>     TC     - TEMPERATURE IN CELSIUS                      <
>     VRB    - VARIABLE WIND DIRECTION                     <
>                                                          <
>>>>>>>>>>>>>>>>>>>>>>>>>>>> KEY <<<<<<<<<<<<<<<<<<<<<<<<<<<




USA.gov is the U.S. government's official web portal to all federal, state and local government web resources and services.